Crestview, FL

2:55 AM CST on February 12, 2016 (GMT -0600)
Sikes

Weather History for KCEW - July, 2013

Change the Weather History Date:

Friday, July 26, 2013

  Actual Average Record
Temperature  
Mean Temperature 82 °F -  
Max Temperature 93 °F 91 °F 99 °F (1983)
Min Temperature 72 °F 71 °F 66 °F (2000)
Cooling Degree Days 16    
Growing Degree Days 32 (Base 50)    
Moisture  
Dew Point 69 °F    
Average Humidity 67    
Maximum Humidity 93    
Minimum Humidity 38    
Precipitation  
Precipitation 0.00 in - - ()
Sea Level Pressure  
Sea Level Pressure 30.01 in    
Wind  
Wind Speed 3 mph (West)    
Max Wind Speed 10 mph    
Max Gust Speed -    
Visibility 9 miles    
Events      
Averages and records for this station are not official NWS values.
T = Trace of Precipitation, MM = Missing Value Source: NWS Daily Summary

Daily Weather History Graph

Daily Weather History Graph

Search for Another Location

Airport or City:

Trip Planner

Search our weather history database for the weather conditions in past years. The results will help you decide how hot, cold, wet, or windy it might be!

Date:

Astronomy

Jul. 26, 2013 Rise Set
Actual Time 6:00 AM CDT 7:44 PM CDT
Civil Twilight 5:33 AM CDT 8:11 PM CDT
Nautical Twilight 5:01 AM CDT 8:43 PM CDT
Astronomical Twilight 4:27 AM CDT 9:16 PM CDT
Moon 10:23 PM CDT (7/26) 10:12 AM CDT (7/26)
Length of Visible Light 14h 37m
Length of Day
13h 44m
Waning Gibbous, 80% of the Moon is Illuminated
Jul 26
Waning Gibbous
Jul 29
Last Quarter
Aug 6
New
Aug 14
First Quarter
Aug 20
Full

Hourly Weather History & Observations

Time (CDT) Temp. Heat Index Dew Point Humidity Pressure Visibility Wind Dir Wind Speed Gust Speed Precip Events Conditions
12:53 AM 78.1 °F - 73.0 °F 84% 30.01 in 10.0 mi Calm Calm - N/A   Clear
1:53 AM 77.0 °F - 72.0 °F 84% 30.01 in 9.0 mi NNW 3.5 mph - N/A   Clear
2:53 AM 77.0 °F - 72.0 °F 84% 30.00 in 9.0 mi NNW 3.5 mph - N/A   Clear
3:53 AM 75.9 °F - 72.0 °F 87% 30.00 in 7.0 mi Calm Calm - N/A   Clear
4:53 AM 73.0 °F - 70.0 °F 90% 30.01 in 5.0 mi Calm Calm - N/A   Clear
5:53 AM 72.0 °F - 70.0 °F 93% 30.02 in 3.0 mi Calm Calm - N/A   Clear
6:53 AM 73.9 °F - 71.1 °F 91% 30.04 in 4.0 mi Calm Calm - N/A   Clear
7:53 AM 79.0 °F - 71.1 °F 77% 30.04 in 9.0 mi NNW 3.5 mph - N/A   Clear
8:53 AM 82.0 °F 85.9 °F 70.0 °F 67% 30.05 in 10.0 mi Calm Calm - N/A   Clear
9:53 AM 86.0 °F 90.1 °F 69.1 °F 57% 30.05 in 10.0 mi SW 5.8 mph - N/A   Clear
10:53 AM 88.0 °F 91.4 °F 68.0 °F 51% 30.06 in 10.0 mi WNW 5.8 mph - N/A   Clear
11:53 AM 89.1 °F 92.1 °F 66.9 °F 48% 30.05 in 10.0 mi West 10.4 mph - N/A   Clear
12:53 PM 91.0 °F 94.3 °F 66.9 °F 45% 30.04 in 10.0 mi West 8.1 mph - N/A   Clear
1:53 PM 91.9 °F 93.3 °F 64.0 °F 39% 30.02 in 10.0 mi WNW 8.1 mph - N/A   Clear
2:53 PM 91.9 °F 93.3 °F 64.0 °F 39% 30.00 in 10.0 mi West 10.4 mph - N/A   Clear
3:53 PM 91.9 °F 93.3 °F 64.0 °F 39% 29.99 in 10.0 mi West 8.1 mph - N/A   Clear
4:53 PM 91.9 °F 92.9 °F 63.0 °F 38% 29.98 in 10.0 mi West 5.8 mph - N/A   Clear
5:53 PM 91.9 °F 93.3 °F 64.0 °F 39% 29.97 in 10.0 mi West 4.6 mph - N/A   Clear
6:53 PM 88.0 °F 90.7 °F 66.9 °F 49% 29.98 in 10.0 mi West 4.6 mph - N/A   Clear
7:53 PM 84.0 °F 89.0 °F 71.1 °F 65% 29.98 in 10.0 mi West 3.5 mph - N/A   Clear
8:53 PM 82.0 °F 87.9 °F 73.9 °F 76% 29.99 in 9.0 mi SW 3.5 mph - N/A   Clear
9:53 PM 81.0 °F 85.8 °F 73.0 °F 77% 29.99 in 9.0 mi SW 3.5 mph - N/A   Clear
10:53 PM 75.9 °F - 72.0 °F 87% 29.99 in 7.0 mi Calm Calm - N/A   Clear
11:53 PM 73.9 °F - 72.0 °F 93% 29.98 in 5.0 mi Calm Calm - N/A   Clear